Eastover, SC

3:59 AM EDT on October 19, 2019 (GMT -0400)
McEntire Angs

Weather History for KMMT - September, 2019

Change the Weather History Date:

Monday, September 16, 2019

  Actual Average Record
Temperature  
Mean Temperature 82 °F -  
Max Temperature 96 °F 81 °F 96 °F (2005)
Min Temperature 69 °F 62 °F 53 °F (2001)
Cooling Degree Days 17    
Growing Degree Days 32 (Base 50)    
Moisture  
Dew Point 64 °F    
Average Humidity 63    
Maximum Humidity 96    
Minimum Humidity 25    
Precipitation  
Precipitation 0.00 in - - ()
Sea Level Pressure  
Sea Level Pressure 30.01 in    
Wind  
Wind Speed 4 mph ()    
Max Wind Speed 14 mph    
Max Gust Speed 20 mph    
Visibility 10.0 miles    
Events      
Averages and records for this station are not official NWS values.
T = Trace of Precipitation, MM = Missing Value Source: Averaged Metar Reports

Daily Weather History Graph

Daily Weather History Graph

Search for Another Location

Airport or City:

Astronomy

Sep. 16, 2019 Rise Set
Actual Time 7:07 AM EDT 7:28 PM EDT
Civil Twilight 6:42 AM EDT 7:53 PM EDT
Nautical Twilight 6:12 AM EDT 8:22 PM EDT
Astronomical Twilight 5:42 AM EDT 8:52 PM EDT
Moon 9:08 PM EDT (9/16) 9:08 AM EDT (9/16)
Length of Visible Light 13h 11m
Length of Day
12h 21m
Waning Gibbous, 94% of the Moon is Illuminated
Sep 16
Waning Gibbous
Sep 21
Last Quarter
Sep 28
New
Oct 5
First Quarter
Oct 13
Full

Hourly Weather History & Observations

Time (EDT) Temp. Heat Index Dew Point Humidity Pressure Visibility Wind Dir Wind Speed Gust Speed Precip Events Conditions
12:56 AM 73.0 °F - 68.9 °F 87% 30.06 in 10.0 mi Calm Calm - N/A   Clear
1:56 AM 70.7 °F - 68.9 °F 94% 30.05 in 10.0 mi NW 3.5 mph - N/A   Clear
2:56 AM 69.4 °F - 68.2 °F 96% 30.04 in 10.0 mi North 3.5 mph - N/A   Clear
3:56 AM 72.0 °F - 69.1 °F 91% 30.04 in 10.0 mi North 3.5 mph - N/A   Clear
4:56 AM 71.6 °F - 69.8 °F 94% 30.04 in 10.0 mi North 4.6 mph - N/A   Clear
5:56 AM 71.2 °F - 69.6 °F 95% 30.04 in 10.0 mi North 4.6 mph - N/A   Clear
6:56 AM 72.1 °F - 70.3 °F 94% 30.05 in 10.0 mi NNE 5.8 mph - N/A   Partly Cloudy
7:56 AM 73.4 °F - 70.2 °F 90% 30.07 in 10.0 mi North 6.9 mph - N/A   Partly Cloudy
8:56 AM 78.6 °F - 70.0 °F 75% 30.07 in 10.0 mi North 6.9 mph - N/A   Partly Cloudy
9:56 AM 83.7 °F 87.5 °F 69.3 °F 62% 30.07 in 10.0 mi NNE 9.2 mph - N/A   Partly Cloudy
10:56 AM 87.3 °F 90.9 °F 68.0 °F 53% 30.07 in 10.0 mi NNE 6.9 mph 17.3 mph N/A   Partly Cloudy
11:56 AM 90.1 °F 93.1 °F 66.6 °F 46% 30.05 in 10.0 mi North 11.5 mph - N/A   Partly Cloudy
12:56 PM 92.1 °F 93.6 °F 64.2 °F 39% 30.03 in 10.0 mi North 8.1 mph - N/A   Partly Cloudy
1:56 PM 93.2 °F 92.6 °F 58.8 °F 32% 30.00 in 10.0 mi NE 10.4 mph - N/A   Partly Cloudy
2:56 PM 95.2 °F 93.9 °F 56.8 °F 28% 29.98 in 10.0 mi NNE 9.2 mph - N/A   Partly Cloudy
3:56 PM 94.6 °F 92.9 °F 55.4 °F 27% 29.95 in 10.0 mi NE 13.8 mph 19.6 mph N/A   Partly Cloudy
4:56 PM 94.5 °F 92.1 °F 53.1 °F 25% 29.95 in 10.0 mi NE 10.4 mph - N/A   Scattered Clouds
5:56 PM 92.8 °F 91.1 °F 55.8 °F 29% 29.95 in 10.0 mi ENE 9.2 mph - N/A   Scattered Clouds
6:56 PM 90.0 °F 88.8 °F 57.7 °F 34% 29.95 in 10.0 mi NE 3.5 mph - N/A   Partly Cloudy
7:56 PM 82.4 °F 82.7 °F 60.1 °F 47% 29.95 in 10.0 mi Calm Calm - N/A   Partly Cloudy
8:56 PM 76.8 °F - 61.3 °F 59% 29.96 in 10.0 mi Calm Calm - N/A   Scattered Clouds
9:56 PM 73.4 °F - 62.6 °F 69% 29.97 in 10.0 mi Calm Calm - N/A   Clear
10:56 PM 72.0 °F - 63.5 °F 75% 29.99 in 10.0 mi Calm Calm - N/A   Clear
11:56 PM 70.7 °F - 63.5 °F 78% 29.97 in 10.0 mi Calm Calm - N/A   Clear